Weather History for Port Angeles, WA

Change the Weather History Date:

Wednesday, October 16, 2013

  Actual Average Record
Temperature  
Mean Temperature 50 °F -  
Max Temperature 60 °F 56 °F 67 °F (1963)
Min Temperature 41 °F 42 °F 34 °F (1986)
Degree Days  
Heating Degree Days 14    
Moisture  
Dew Point 45 °F    
Average Humidity 84    
Maximum Humidity 97    
Minimum Humidity 55    
Precipitation  
Precipitation 0.00 in - - ()
Sea Level Pressure  
Sea Level Pressure 30.20 in    
Wind  
Wind Speed 3 mph (ESE)    
Max Wind Speed 10 mph    
Max Gust Speed -    
Visibility 10 miles    
Events      
Averages and records for this station are not official NWS values.
T = Trace of Precipitation, MM = Missing Value Source: NWS Daily Summary

Daily Weather History Graph

Daily Weather History Graph

Search for Another Location

Airport:

Trip Planner

Search our weather history database for the weather conditions in past years. The results will help you decide how hot, cold, wet, or windy it might be!

Date:

Astronomy

Oct. 16, 2013 Rise Set
Actual Time 7:35 AM PDT 6:22 PM PDT
Civil Twilight 7:03 AM PDT 6:54 PM PDT
Nautical Twilight 6:27 AM PDT 7:30 PM PDT
Astronomical Twilight 5:51 AM PDT 8:06 PM PDT
Moon 5:12 PM PDT (10/16) 5:00 AM PDT (10/16)
Length of Visible Light 11h 50m
Length of Day
10h 47m
Waxing Gibbous, 94% of the Moon is Illuminated
Oct 16
Waxing Gibbous
Oct 18
Full
Oct 26
Last Quarter
Nov 3
New
Nov 9
First Quarter

Hourly Weather History & Observations

Time (PDT) Temp. Windchill Dew Point Humidity Pressure Visibility Wind Dir Wind Speed Gust Speed Precip Events Conditions
12:53 AM 46.9 °F - 44.1 °F 90% 30.19 in 10.0 mi Calm Calm - N/A   Mostly Cloudy
1:53 AM 43.0 °F - 42.1 °F 97% 30.20 in 9.0 mi Calm Calm - N/A   Clear
2:53 AM 41.0 °F - 39.0 °F 93% 30.20 in 9.0 mi Calm Calm - N/A   Scattered Clouds
3:53 AM 41.0 °F - 39.0 °F 93% 30.19 in 9.0 mi Calm Calm - N/A   Scattered Clouds
4:53 AM 42.1 °F 39.2 °F 39.9 °F 92% 30.18 in 8.0 mi SW 4.6 mph - N/A   Clear
5:53 AM 42.1 °F - 41.0 °F 96% 30.18 in 10.0 mi Calm Calm - N/A   Mostly Cloudy
6:48 AM 44.6 °F - 42.8 °F 93% 30.20 in 10.0 mi Calm Calm - N/A   Overcast
6:53 AM 45.0 °F 42.6 °F 43.0 °F 93% 30.20 in 10.0 mi SE 4.6 mph - N/A   Overcast
7:53 AM 50.0 °F - 46.9 °F 89% 30.21 in 10.0 mi ESE 6.9 mph - N/A   Overcast
8:36 AM 50.0 °F - 46.9 °F 89% 30.20 in 10.0 mi East 9.2 mph - N/A   Scattered Clouds
8:53 AM 51.1 °F - 46.9 °F 86% 30.21 in 10.0 mi East 9.2 mph - N/A   Clear
9:36 AM 52.0 °F - 48.0 °F 86% 30.21 in 10.0 mi East 8.1 mph - N/A   Partly Cloudy
9:51 AM 51.8 °F - 48.2 °F 88% 30.21 in 10.0 mi East 8.1 mph - N/A   Mostly Cloudy
9:53 AM 52.0 °F - 48.0 °F 86% 30.22 in 10.0 mi East 5.8 mph - N/A   Mostly Cloudy
10:29 AM 53.1 °F - 48.0 °F 83% 30.21 in 10.0 mi East 6.9 mph - N/A   Mostly Cloudy
10:53 AM 53.1 °F - 46.9 °F 80% 30.22 in 10.0 mi East 8.1 mph - N/A   Mostly Cloudy
11:53 AM 53.1 °F - 48.0 °F 83% 30.22 in 10.0 mi ESE 10.4 mph - N/A   Mostly Cloudy
12:09 PM 54.0 °F - 46.9 °F 77% 30.21 in 10.0 mi ESE 9.2 mph - N/A   Scattered Clouds
12:53 PM 55.0 °F - 48.0 °F 77% 30.21 in 10.0 mi East 9.2 mph - N/A   Clear
1:53 PM 57.0 °F - 48.0 °F 72% 30.20 in 10.0 mi East 4.6 mph - N/A   Clear
2:53 PM 59.0 °F - 46.9 °F 64% 30.19 in 10.0 mi ESE 5.8 mph - N/A   Clear
3:53 PM 60.1 °F - 45.0 °F 57% 30.18 in 10.0 mi ESE 3.5 mph - N/A   Clear
4:53 PM 60.1 °F - 44.1 °F 55% 30.17 in 10.0 mi ENE 4.6 mph - N/A   Clear
5:53 PM 55.9 °F - 44.1 °F 64% 30.17 in 10.0 mi ESE 5.8 mph - N/A   Clear
6:53 PM 50.0 °F - 45.0 °F 83% 30.17 in 10.0 mi SSW 3.5 mph - N/A   Clear
7:53 PM 46.0 °F 43.9 °F 44.1 °F 93% 30.17 in 10.0 mi SSW 4.6 mph - N/A   Clear
8:53 PM 46.0 °F 44.8 °F 43.0 °F 89% 30.18 in 10.0 mi SSW 3.5 mph - N/A   Clear
9:53 PM 46.0 °F - 42.1 °F 86% 30.19 in 10.0 mi Calm Calm - N/A   Clear
10:53 PM 42.1 °F - 41.0 °F 96% 30.20 in 10.0 mi Calm Calm - N/A   Clear
11:53 PM 43.0 °F 40.3 °F 41.0 °F 93% 30.20 in 10.0 mi SW 4.6 mph - N/A   Clear